Location: Borgo
(42.3939°N, 9.2791°E)
Time: 01:33:15
(UTC+00:00)

Meteor 1-21 Rocket - Pass Details

Date: 24 January 2021
Orbit: 834 x 906 km, 81.2° (Epoch: 08 March)

Event Time Altitude Azimuth Distance (km) Brightness Sun altitude
Rises 17:45:07 0° 193° (SSW) 3,368 7.7 -14.5°
Reaches altitude 10° 17:47:31 10° 195° (SSW) 2,437 7.0 -14.9°
Maximum altitude 17:53:02 75° 281° (W) 867 4.4 -15.9°
Drops below altitude 10° 17:58:37 10° 7° (N) 2,469 6.5 -16.9°
Sets 18:01:03 0° 9° (N) 3,416 7.2 -17.4°
